Time,TemperatureF,DewpointF,PressureIn,WindDirection,WindDirectionDegrees,WindSpeedMPH,WindSpeedGustMPH,Humidity,HourlyPrecipIn,Conditions,Clouds,dailyrainin,SoftwareType,DateUTC
2013-03-26 00:04:00,46.9,42.4,29.97,North,-999,-999.0,-999.0,84,0.00,,,0.00,AD6XL-WX-0.1,2013-03-26 07:04:00,
2013-03-26 00:09:00,46.9,42.5,29.97,North,-999,-999.0,-999.0,84,0.00,,,0.00,AD6XL-WX-0.1,2013-03-26 07:09:00,
2013-03-26 00:14:00,46.8,42.4,29.97,North,-999,-999.0,-999.0,84,0.00,,,0.00,AD6XL-WX-0.1,2013-03-26 07:14:00,
2013-03-26 00:19:00,46.7,42.4,29.97,North,-999,-999.0,-999.0,84,0.00,,,0.00,AD6XL-WX-0.1,2013-03-26 07:19:00,
2013-03-26 00:24:00,46.7,42.4,29.97,North,-999,-999.0,-999.0,84,0.00,,,0.00,AD6XL-WX-0.1,2013-03-26 07:24:00,
2013-03-26 00:29:00,46.8,42.3,29.97,North,-999,-999.0,-999.0,84,0.00,,,0.00,AD6XL-WX-0.1,2013-03-26 07:29:00,
2013-03-26 00:34:00,46.9,42.3,29.97,North,-999,-999.0,-999.0,83,0.00,,,0.00,AD6XL-WX-0.1,2013-03-26 07:34:00,
2013-03-26 00:39:00,46.9,42.4,29.97,North,-999,-999.0,-999.0,83,0.00,,,0.00,AD6XL-WX-0.1,2013-03-26 07:39:00,
2013-03-26 00:45:00,46.9,42.5,29.97,North,-999,-999.0,-999.0,84,0.00,,,0.00,AD6XL-WX-0.1,2013-03-26 07:45:00,
2013-03-26 00:50:00,46.9,42.7,29.97,North,-999,-999.0,-999.0,85,0.00,,,0.00,AD6XL-WX-0.1,2013-03-26 07:50:00,
2013-03-26 00:55:00,46.9,42.8,29.97,North,-999,-999.0,-999.0,85,0.00,,,0.00,AD6XL-WX-0.1,2013-03-26 07:55:00,
2013-03-26 01:00:00,46.9,42.9,29.97,North,-999,-999.0,-999.0,86,0.00,,,0.00,AD6XL-WX-0.1,2013-03-26 08:00:00,
2013-03-26 01:05:00,46.9,42.9,29.97,North,-999,-999.0,-999.0,85,0.00,,,0.00,AD6XL-WX-0.1,2013-03-26 08:05:00,
2013-03-26 01:10:00,46.9,42.8,29.97,North,-999,-999.0,-999.0,85,0.00,,,0.00,AD6XL-WX-0.1,2013-03-26 08:10:00,
2013-03-26 01:15:00,46.9,42.7,29.96,North,-999,-999.0,-999.0,85,0.00,,,0.00,AD6XL-WX-0.1,2013-03-26 08:15:00,
2013-03-26 01:20:00,46.9,42.7,29.97,North,-999,-999.0,-999.0,85,0.00,,,0.00,AD6XL-WX-0.1,2013-03-26 08:20:00,
2013-03-26 01:25:00,46.9,42.6,29.97,North,-999,-999.0,-999.0,84,0.00,,,0.00,AD6XL-WX-0.1,2013-03-26 08:25:00,
2013-03-26 01:30:00,46.9,42.6,29.97,North,-999,-999.0,-999.0,84,0.00,,,0.00,AD6XL-WX-0.1,2013-03-26 08:30:00,
2013-03-26 01:35:00,46.9,42.6,29.97,North,-999,-999.0,-999.0,84,0.00,,,0.00,AD6XL-WX-0.1,2013-03-26 08:35:00,
2013-03-26 01:40:00,46.9,42.6,29.97,North,-999,-999.0,-999.0,84,0.00,,,0.00,AD6XL-WX-0.1,2013-03-26 08:40:00,
2013-03-26 01:45:00,46.9,42.6,29.97,North,-999,-999.0,-999.0,84,0.00,,,0.00,AD6XL-WX-0.1,2013-03-26 08:45:00,
2013-03-26 01:50:00,46.9,42.6,29.97,North,-999,-999.0,-999.0,84,0.00,,,0.00,AD6XL-WX-0.1,2013-03-26 08:50:00,
2013-03-26 01:56:00,46.9,42.6,29.97,North,-999,-999.0,-999.0,84,0.00,,,0.00,AD6XL-WX-0.1,2013-03-26 08:56:00,
2013-03-26 02:01:00,46.9,42.6,29.97,North,-999,-999.0,-999.0,84,0.00,,,0.00,AD6XL-WX-0.1,2013-03-26 09:01:00,
2013-03-26 02:06:00,46.9,42.6,29.97,North,-999,-999.0,-999.0,84,0.00,,,0.00,AD6XL-WX-0.1,2013-03-26 09:06:00,
2013-03-26 02:11:00,46.9,42.7,29.97,North,-999,-999.0,-999.0,85,0.00,,,0.00,AD6XL-WX-0.1,2013-03-26 09:11:00,
2013-03-26 02:16:00,46.9,42.8,29.97,North,-999,-999.0,-999.0,85,0.00,,,0.00,AD6XL-WX-0.1,2013-03-26 09:16:00,
2013-03-26 02:21:00,46.9,42.7,29.97,North,-999,-999.0,-999.0,85,0.00,,,0.00,AD6XL-WX-0.1,2013-03-26 09:21:00,
2013-03-26 02:26:00,46.8,42.7,29.97,North,-999,-999.0,-999.0,85,0.00,,,0.00,AD6XL-WX-0.1,2013-03-26 09:26:00,
2013-03-26 02:31:00,46.7,42.7,29.97,North,-999,-999.0,-999.0,86,0.00,,,0.00,AD6XL-WX-0.1,2013-03-26 09:31:00,
2013-03-26 02:36:00,46.6,42.8,29.97,North,-999,-999.0,-999.0,86,0.00,,,0.00,AD6XL-WX-0.1,2013-03-26 09:36:00,
2013-03-26 02:42:00,46.6,42.8,29.97,North,-999,-999.0,-999.0,86,0.00,,,0.00,AD6XL-WX-0.1,2013-03-26 09:42:00,
2013-03-26 02:47:00,46.6,42.7,29.97,North,-999,-999.0,-999.0,86,0.00,,,0.00,AD6XL-WX-0.1,2013-03-26 09:47:00,
2013-03-26 02:52:00,46.6,42.7,29.97,North,-999,-999.0,-999.0,86,0.00,,,0.00,AD6XL-WX-0.1,2013-03-26 09:52:00,
2013-03-26 02:57:00,46.6,42.8,29.97,North,-999,-999.0,-999.0,86,0.00,,,0.00,AD6XL-WX-0.1,2013-03-26 09:57:00,
2013-03-26 03:02:00,46.6,42.8,29.97,North,-999,-999.0,-999.0,86,0.00,,,0.00,AD6XL-WX-0.1,2013-03-26 10:02:00,
2013-03-26 03:07:00,46.6,42.8,29.97,North,-999,-999.0,-999.0,86,0.00,,,0.00,AD6XL-WX-0.1,2013-03-26 10:07:00,
2013-03-26 03:12:00,46.6,42.8,29.97,North,-999,-999.0,-999.0,86,0.00,,,0.00,AD6XL-WX-0.1,2013-03-26 10:12:00,
2013-03-26 03:17:00,46.5,42.8,29.97,North,-999,-999.0,-999.0,86,0.00,,,0.00,AD6XL-WX-0.1,2013-03-26 10:17:00,
2013-03-26 03:22:00,46.4,42.7,29.97,North,-999,-999.0,-999.0,86,0.00,,,0.00,AD6XL-WX-0.1,2013-03-26 10:22:00,
2013-03-26 03:27:00,46.3,42.7,29.97,North,-999,-999.0,-999.0,87,0.00,,,0.00,AD6XL-WX-0.1,2013-03-26 10:27:00,
2013-03-26 03:32:00,46.2,42.7,29.97,North,-999,-999.0,-999.0,87,0.00,,,0.00,AD6XL-WX-0.1,2013-03-26 10:32:00,
2013-03-26 03:37:00,46.3,42.8,29.97,North,-999,-999.0,-999.0,87,0.00,,,0.00,AD6XL-WX-0.1,2013-03-26 10:37:00,
2013-03-26 03:42:00,46.3,42.8,29.97,North,-999,-999.0,-999.0,87,0.00,,,0.00,AD6XL-WX-0.1,2013-03-26 10:42:00,
2013-03-26 03:47:00,46.4,42.9,29.97,North,-999,-999.0,-999.0,87,0.00,,,0.00,AD6XL-WX-0.1,2013-03-26 10:47:00,
2013-03-26 03:53:00,46.5,43.0,29.97,North,-999,-999.0,-999.0,87,0.00,,,0.00,AD6XL-WX-0.1,2013-03-26 10:53:00,
2013-03-26 03:58:00,46.5,43.2,29.97,North,-999,-999.0,-999.0,87,0.00,,,0.00,AD6XL-WX-0.1,2013-03-26 10:58:00,
2013-03-26 04:03:00,46.5,43.2,29.97,North,-999,-999.0,-999.0,88,0.00,,,0.00,AD6XL-WX-0.1,2013-03-26 11:03:00,
2013-03-26 04:08:00,46.3,43.3,29.97,North,-999,-999.0,-999.0,89,0.00,,,0.00,AD6XL-WX-0.1,2013-03-26 11:08:00,
2013-03-26 04:13:00,46.2,43.2,29.97,North,-999,-999.0,-999.0,89,0.00,,,0.00,AD6XL-WX-0.1,2013-03-26 11:13:00,
2013-03-26 04:18:00,46.2,43.2,29.97,North,-999,-999.0,-999.0,89,0.00,,,0.00,AD6XL-WX-0.1,2013-03-26 11:18:00,
2013-03-26 04:23:00,46.2,43.2,29.97,North,-999,-999.0,-999.0,89,0.00,,,0.00,AD6XL-WX-0.1,2013-03-26 11:23:00,
2013-03-26 04:28:00,46.1,43.2,29.97,North,-999,-999.0,-999.0,89,0.00,,,0.00,AD6XL-WX-0.1,2013-03-26 11:28:00,
2013-03-26 04:33:00,46.0,43.3,29.97,North,-999,-999.0,-999.0,90,0.00,,,0.00,AD6XL-WX-0.1,2013-03-26 11:33:00,
2013-03-26 04:38:00,46.0,43.3,29.97,North,-999,-999.0,-999.0,90,0.00,,,0.00,AD6XL-WX-0.1,2013-03-26 11:38:00,
2013-03-26 04:43:00,46.0,43.3,29.97,North,-999,-999.0,-999.0,90,0.00,,,0.00,AD6XL-WX-0.1,2013-03-26 11:43:00,
2013-03-26 04:48:00,46.0,43.4,29.98,North,-999,-999.0,-999.0,90,0.00,,,0.00,AD6XL-WX-0.1,2013-03-26 11:48:00,
2013-03-26 04:53:00,46.0,43.4,29.98,North,-999,-999.0,-999.0,90,0.00,,,0.00,AD6XL-WX-0.1,2013-03-26 11:53:00,
2013-03-26 04:58:00,46.0,43.5,29.98,North,-999,-999.0,-999.0,90,0.00,,,0.00,AD6XL-WX-0.1,2013-03-26 11:58:00,
2013-03-26 05:04:00,46.0,43.6,29.98,North,-999,-999.0,-999.0,91,0.00,,,0.00,AD6XL-WX-0.1,2013-03-26 12:04:00,
2013-03-26 05:09:00,46.1,43.6,29.98,North,-999,-999.0,-999.0,91,0.00,,,0.00,AD6XL-WX-0.1,2013-03-26 12:09:00,
2013-03-26 05:14:00,46.1,43.7,29.98,North,-999,-999.0,-999.0,91,0.00,,,0.00,AD6XL-WX-0.1,2013-03-26 12:14:00,
2013-03-26 05:19:00,46.1,43.7,29.98,North,-999,-999.0,-999.0,91,0.00,,,0.00,AD6XL-WX-0.1,2013-03-26 12:19:00,
2013-03-26 05:24:00,46.1,43.7,29.98,North,-999,-999.0,-999.0,91,0.00,,,0.00,AD6XL-WX-0.1,2013-03-26 12:24:00,
2013-03-26 05:29:00,46.1,43.8,29.98,North,-999,-999.0,-999.0,91,0.00,,,0.00,AD6XL-WX-0.1,2013-03-26 12:29:00,
2013-03-26 05:34:00,46.1,43.8,29.98,North,-999,-999.0,-999.0,91,0.00,,,0.00,AD6XL-WX-0.1,2013-03-26 12:34:00,
2013-03-26 05:39:00,46.1,43.9,29.98,North,-999,-999.0,-999.0,91,0.01,,,0.01,AD6XL-WX-0.1,2013-03-26 12:39:00,
2013-03-26 05:44:00,46.1,44.0,29.98,North,-999,-999.0,-999.0,92,0.01,,,0.01,AD6XL-WX-0.1,2013-03-26 12:44:00,
2013-03-26 05:49:00,46.2,44.1,29.99,North,-999,-999.0,-999.0,92,0.01,,,0.01,AD6XL-WX-0.1,2013-03-26 12:49:00,
2013-03-26 05:54:00,46.2,44.2,29.99,North,-999,-999.0,-999.0,92,0.01,,,0.01,AD6XL-WX-0.1,2013-03-26 12:54:00,
2013-03-26 05:59:00,46.2,44.2,29.99,North,-999,-999.0,-999.0,92,0.01,,,0.01,AD6XL-WX-0.1,2013-03-26 12:59:00,
2013-03-26 06:04:00,46.3,44.2,29.99,North,-999,-999.0,-999.0,92,0.01,,,0.01,AD6XL-WX-0.1,2013-03-26 13:04:00,
2013-03-26 06:09:00,46.3,44.2,29.99,North,-999,-999.0,-999.0,92,0.01,,,0.01,AD6XL-WX-0.1,2013-03-26 13:09:00,
2013-03-26 06:15:00,46.4,44.3,29.99,North,-999,-999.0,-999.0,92,0.01,,,0.01,AD6XL-WX-0.1,2013-03-26 13:15:00,
2013-03-26 06:20:00,46.4,44.4,29.99,North,-999,-999.0,-999.0,92,0.01,,,0.01,AD6XL-WX-0.1,2013-03-26 13:20:00,
2013-03-26 06:25:00,46.3,44.5,29.99,North,-999,-999.0,-999.0,93,0.01,,,0.01,AD6XL-WX-0.1,2013-03-26 13:25:00,
2013-03-26 06:30:00,46.3,44.4,29.99,North,-999,-999.0,-999.0,93,0.02,,,0.02,AD6XL-WX-0.1,2013-03-26 13:30:00,
2013-03-26 06:35:00,46.3,44.5,29.99,North,-999,-999.0,-999.0,93,0.02,,,0.02,AD6XL-WX-0.1,2013-03-26 13:35:00,
2013-03-26 06:40:00,46.3,44.5,29.99,North,-999,-999.0,-999.0,93,0.01,,,0.02,AD6XL-WX-0.1,2013-03-26 13:40:00,
2013-03-26 06:45:00,46.3,44.5,29.99,North,-999,-999.0,-999.0,93,0.01,,,0.02,AD6XL-WX-0.1,2013-03-26 13:45:00,
2013-03-26 06:50:00,46.3,44.5,29.99,North,-999,-999.0,-999.0,93,0.01,,,0.02,AD6XL-WX-0.1,2013-03-26 13:50:00,
2013-03-26 06:55:00,46.3,44.5,29.99,North,-999,-999.0,-999.0,93,0.01,,,0.02,AD6XL-WX-0.1,2013-03-26 13:55:00,
2013-03-26 07:00:00,46.3,44.5,29.99,North,-999,-999.0,-999.0,93,0.01,,,0.02,AD6XL-WX-0.1,2013-03-26 14:00:00,
2013-03-26 07:05:00,46.3,44.6,30.00,North,-999,-999.0,-999.0,93,0.01,,,0.02,AD6XL-WX-0.1,2013-03-26 14:05:00,
2013-03-26 07:10:00,46.4,44.7,30.00,North,-999,-999.0,-999.0,93,0.01,,,0.02,AD6XL-WX-0.1,2013-03-26 14:10:00,
2013-03-26 07:15:00,46.4,44.8,30.00,North,-999,-999.0,-999.0,93,0.01,,,0.02,AD6XL-WX-0.1,2013-03-26 14:15:00,
2013-03-26 07:20:00,46.4,44.8,30.00,North,-999,-999.0,-999.0,94,0.01,,,0.02,AD6XL-WX-0.1,2013-03-26 14:20:00,
2013-03-26 07:26:00,46.5,44.9,30.00,North,-999,-999.0,-999.0,94,0.00,,,0.02,AD6XL-WX-0.1,2013-03-26 14:26:00,
2013-03-26 07:31:00,46.5,45.0,30.00,North,-999,-999.0,-999.0,94,0.00,,,0.02,AD6XL-WX-0.1,2013-03-26 14:31:00,
2013-03-26 07:36:00,46.6,45.0,30.00,North,-999,-999.0,-999.0,94,0.00,,,0.02,AD6XL-WX-0.1,2013-03-26 14:36:00,
2013-03-26 07:41:00,46.6,45.0,30.00,North,-999,-999.0,-999.0,94,0.00,,,0.02,AD6XL-WX-0.1,2013-03-26 14:41:00,
2013-03-26 07:46:00,46.7,45.1,30.00,North,-999,-999.0,-999.0,94,0.00,,,0.02,AD6XL-WX-0.1,2013-03-26 14:46:00,
2013-03-26 07:51:00,46.8,45.3,30.00,North,-999,-999.0,-999.0,94,0.01,,,0.03,AD6XL-WX-0.1,2013-03-26 14:51:00,
2013-03-26 07:56:00,46.9,45.4,30.00,North,-999,-999.0,-999.0,94,0.01,,,0.03,AD6XL-WX-0.1,2013-03-26 14:56:00,
2013-03-26 08:01:00,46.9,45.5,30.00,North,-999,-999.0,-999.0,94,0.01,,,0.03,AD6XL-WX-0.1,2013-03-26 15:01:00,
2013-03-26 08:07:00,47.0,45.6,30.00,North,-999,-999.0,-999.0,94,0.01,,,0.03,AD6XL-WX-0.1,2013-03-26 15:07:00,
2013-03-26 08:12:00,47.1,45.6,30.00,North,-999,-999.0,-999.0,94,0.01,,,0.03,AD6XL-WX-0.1,2013-03-26 15:12:00,
2013-03-26 08:17:00,47.1,45.7,30.00,North,-999,-999.0,-999.0,94,0.01,,,0.03,AD6XL-WX-0.1,2013-03-26 15:17:00,
2013-03-26 08:22:00,47.2,45.7,30.00,North,-999,-999.0,-999.0,94,0.01,,,0.03,AD6XL-WX-0.1,2013-03-26 15:22:00,
2013-03-26 08:27:00,47.3,45.9,30.00,North,-999,-999.0,-999.0,94,0.01,,,0.03,AD6XL-WX-0.1,2013-03-26 15:27:00,
2013-03-26 08:32:00,47.4,46.0,30.00,North,-999,-999.0,-999.0,94,0.01,,,0.03,AD6XL-WX-0.1,2013-03-26 15:32:00,
2013-03-26 08:37:00,47.5,46.0,30.00,North,-999,-999.0,-999.0,94,0.01,,,0.03,AD6XL-WX-0.1,2013-03-26 15:37:00,
2013-03-26 08:42:00,47.5,46.0,30.00,North,-999,-999.0,-999.0,94,0.01,,,0.03,AD6XL-WX-0.1,2013-03-26 15:42:00,
2013-03-26 08:47:00,47.5,46.1,30.00,North,-999,-999.0,-999.0,94,0.01,,,0.03,AD6XL-WX-0.1,2013-03-26 15:47:00,
2013-03-26 08:52:00,47.5,46.1,30.01,North,-999,-999.0,-999.0,94,0.00,,,0.03,AD6XL-WX-0.1,2013-03-26 15:52:00,
2013-03-26 08:57:00,47.5,46.1,30.01,North,-999,-999.0,-999.0,94,0.00,,,0.03,AD6XL-WX-0.1,2013-03-26 15:57:00,
2013-03-26 09:02:00,47.6,46.1,30.01,North,-999,-999.0,-999.0,94,0.00,,,0.03,AD6XL-WX-0.1,2013-03-26 16:02:00,
2013-03-26 09:07:00,47.7,46.2,30.01,North,-999,-999.0,-999.0,94,0.00,,,0.03,AD6XL-WX-0.1,2013-03-26 16:07:00,
2013-03-26 09:12:00,47.8,46.3,30.01,North,-999,-999.0,-999.0,94,0.00,,,0.03,AD6XL-WX-0.1,2013-03-26 16:12:00,
2013-03-26 09:17:00,47.8,46.3,30.01,North,-999,-999.0,-999.0,94,0.00,,,0.03,AD6XL-WX-0.1,2013-03-26 16:17:00,
2013-03-26 09:23:00,47.9,46.3,30.01,North,-999,-999.0,-999.0,94,0.00,,,0.03,AD6XL-WX-0.1,2013-03-26 16:23:00,
2013-03-26 09:28:00,48.0,46.4,30.01,North,-999,-999.0,-999.0,94,0.00,,,0.03,AD6XL-WX-0.1,2013-03-26 16:28:00,
2013-03-26 09:33:00,48.1,46.4,30.01,North,-999,-999.0,-999.0,93,0.00,,,0.03,AD6XL-WX-0.1,2013-03-26 16:33:00,
2013-03-26 09:38:00,48.3,46.6,30.01,North,-999,-999.0,-999.0,93,0.00,,,0.03,AD6XL-WX-0.1,2013-03-26 16:38:00,
2013-03-26 09:43:00,48.5,46.6,30.01,North,-999,-999.0,-999.0,93,0.00,,,0.03,AD6XL-WX-0.1,2013-03-26 16:43:00,
2013-03-26 09:48:00,48.7,46.8,30.01,North,-999,-999.0,-999.0,92,0.00,,,0.03,AD6XL-WX-0.1,2013-03-26 16:48:00,
2013-03-26 09:53:00,48.8,46.8,30.01,North,-999,-999.0,-999.0,92,0.00,,,0.03,AD6XL-WX-0.1,2013-03-26 16:53:00,
2013-03-26 09:58:00,49.0,46.8,30.01,North,-999,-999.0,-999.0,92,0.00,,,0.03,AD6XL-WX-0.1,2013-03-26 16:58:00,
2013-03-26 10:03:00,49.1,46.8,30.01,North,-999,-999.0,-999.0,91,0.00,,,0.03,AD6XL-WX-0.1,2013-03-26 17:03:00,
2013-03-26 10:08:00,49.2,47.0,30.01,North,-999,-999.0,-999.0,91,0.00,,,0.03,AD6XL-WX-0.1,2013-03-26 17:08:00,
2013-03-26 10:13:00,49.3,47.0,30.01,North,-999,-999.0,-999.0,91,0.00,,,0.03,AD6XL-WX-0.1,2013-03-26 17:13:00,
2013-03-26 10:18:00,49.5,47.2,30.01,North,-999,-999.0,-999.0,91,0.00,,,0.03,AD6XL-WX-0.1,2013-03-26 17:18:00,
2013-03-26 10:23:00,49.7,47.3,30.01,North,-999,-999.0,-999.0,91,0.00,,,0.03,AD6XL-WX-0.1,2013-03-26 17:23:00,
2013-03-26 10:28:00,49.8,47.2,30.02,North,-999,-999.0,-999.0,90,0.00,,,0.03,AD6XL-WX-0.1,2013-03-26 17:28:00,
2013-03-26 10:34:00,50.0,47.2,30.02,North,-999,-999.0,-999.0,90,0.00,,,0.03,AD6XL-WX-0.1,2013-03-26 17:34:00,
2013-03-26 10:39:00,50.2,47.2,30.02,North,-999,-999.0,-999.0,89,0.00,,,0.03,AD6XL-WX-0.1,2013-03-26 17:39:00,
2013-03-26 10:44:00,50.4,47.4,30.02,North,-999,-999.0,-999.0,89,0.00,,,0.03,AD6XL-WX-0.1,2013-03-26 17:44:00,
2013-03-26 10:49:00,50.6,47.4,30.02,North,-999,-999.0,-999.0,88,0.00,,,0.03,AD6XL-WX-0.1,2013-03-26 17:49:00,
2013-03-26 10:54:00,50.8,47.4,30.02,North,-999,-999.0,-999.0,88,0.00,,,0.03,AD6XL-WX-0.1,2013-03-26 17:54:00,
2013-03-26 10:59:00,51.1,47.6,30.02,North,-999,-999.0,-999.0,87,0.00,,,0.03,AD6XL-WX-0.1,2013-03-26 17:59:00,
2013-03-26 11:04:00,51.3,47.7,30.02,North,-999,-999.0,-999.0,87,0.00,,,0.03,AD6XL-WX-0.1,2013-03-26 18:04:00,
2013-03-26 11:09:00,51.5,47.7,30.02,North,-999,-999.0,-999.0,86,0.00,,,0.03,AD6XL-WX-0.1,2013-03-26 18:09:00,
2013-03-26 11:14:00,51.7,47.7,30.02,North,-999,-999.0,-999.0,86,0.00,,,0.03,AD6XL-WX-0.1,2013-03-26 18:14:00,
2013-03-26 11:19:00,52.0,47.6,30.02,North,-999,-999.0,-999.0,84,0.00,,,0.03,AD6XL-WX-0.1,2013-03-26 18:19:00,
2013-03-26 11:25:00,52.3,47.8,30.02,North,-999,-999.0,-999.0,84,0.00,,,0.03,AD6XL-WX-0.1,2013-03-26 18:25:00,
2013-03-26 11:30:00,52.6,47.7,30.02,North,-999,-999.0,-999.0,83,0.00,,,0.03,AD6XL-WX-0.1,2013-03-26 18:30:00,
2013-03-26 11:35:00,52.9,47.5,30.02,North,-999,-999.0,-999.0,81,0.00,,,0.03,AD6XL-WX-0.1,2013-03-26 18:35:00,
2013-03-26 11:40:00,53.2,47.6,30.02,North,-999,-999.0,-999.0,81,0.00,,,0.03,AD6XL-WX-0.1,2013-03-26 18:40:00,
2013-03-26 11:45:00,53.3,47.7,30.02,North,-999,-999.0,-999.0,81,0.00,,,0.03,AD6XL-WX-0.1,2013-03-26 18:45:00,
2013-03-26 11:50:00,53.6,47.7,30.02,North,-999,-999.0,-999.0,80,0.00,,,0.03,AD6XL-WX-0.1,2013-03-26 18:50:00,
2013-03-26 11:55:00,53.8,47.7,30.02,North,-999,-999.0,-999.0,79,0.00,,,0.03,AD6XL-WX-0.1,2013-03-26 18:55:00,
2013-03-26 12:00:00,54.1,47.8,30.01,North,-999,-999.0,-999.0,79,0.00,,,0.03,AD6XL-WX-0.1,2013-03-26 19:00:00,
2013-03-26 12:05:00,54.6,47.9,30.01,North,-999,-999.0,-999.0,78,0.00,,,0.03,AD6XL-WX-0.1,2013-03-26 19:05:00,
2013-03-26 12:10:00,55.1,48.2,30.01,North,-999,-999.0,-999.0,77,0.00,,,0.03,AD6XL-WX-0.1,2013-03-26 19:10:00,
2013-03-26 12:16:00,55.6,48.3,30.01,North,-999,-999.0,-999.0,76,0.00,,,0.03,AD6XL-WX-0.1,2013-03-26 19:16:00,
2013-03-26 12:21:00,55.9,48.0,30.01,North,-999,-999.0,-999.0,74,0.00,,,0.03,AD6XL-WX-0.1,2013-03-26 19:21:00,
2013-03-26 12:26:00,56.1,47.7,30.01,North,-999,-999.0,-999.0,73,0.00,,,0.03,AD6XL-WX-0.1,2013-03-26 19:26:00,
2013-03-26 12:31:00,56.3,47.8,30.01,North,-999,-999.0,-999.0,72,0.00,,,0.03,AD6XL-WX-0.1,2013-03-26 19:31:00,
2013-03-26 12:36:00,56.6,47.8,30.01,North,-999,-999.0,-999.0,72,0.00,,,0.03,AD6XL-WX-0.1,2013-03-26 19:36:00,
2013-03-26 12:41:00,56.9,48.0,30.01,North,-999,-999.0,-999.0,71,0.00,,,0.03,AD6XL-WX-0.1,2013-03-26 19:41:00,
2013-03-26 12:46:00,57.2,47.9,30.01,North,-999,-999.0,-999.0,70,0.00,,,0.03,AD6XL-WX-0.1,2013-03-26 19:46:00,
2013-03-26 12:51:00,57.4,47.8,30.01,North,-999,-999.0,-999.0,70,0.00,,,0.03,AD6XL-WX-0.1,2013-03-26 19:51:00,
2013-03-26 12:56:00,57.6,47.8,30.01,North,-999,-999.0,-999.0,69,0.00,,,0.03,AD6XL-WX-0.1,2013-03-26 19:56:00,
2013-03-26 13:02:00,58.0,48.1,30.00,North,-999,-999.0,-999.0,69,0.00,,,0.03,AD6XL-WX-0.1,2013-03-26 20:02:00,
2013-03-26 13:07:00,58.6,48.1,30.00,North,-999,-999.0,-999.0,68,0.00,,,0.03,AD6XL-WX-0.1,2013-03-26 20:07:00,
2013-03-26 13:12:00,58.8,47.5,30.00,North,-999,-999.0,-999.0,66,0.00,,,0.03,AD6XL-WX-0.1,2013-03-26 20:12:00,
2013-03-26 13:17:00,59.0,47.8,30.00,North,-999,-999.0,-999.0,66,0.00,,,0.03,AD6XL-WX-0.1,2013-03-26 20:17:00,
2013-03-26 13:22:00,59.3,47.8,30.00,North,-999,-999.0,-999.0,65,0.00,,,0.03,AD6XL-WX-0.1,2013-03-26 20:22:00,
2013-03-26 13:27:00,59.5,47.4,30.00,North,-999,-999.0,-999.0,64,0.00,,,0.03,AD6XL-WX-0.1,2013-03-26 20:27:00,
2013-03-26 13:32:00,59.5,47.4,30.00,North,-999,-999.0,-999.0,64,0.00,,,0.03,AD6XL-WX-0.1,2013-03-26 20:32:00,
2013-03-26 13:37:00,59.7,47.6,30.00,North,-999,-999.0,-999.0,64,0.00,,,0.03,AD6XL-WX-0.1,2013-03-26 20:37:00,
2013-03-26 13:42:00,59.7,47.5,30.00,North,-999,-999.0,-999.0,63,0.00,,,0.03,AD6XL-WX-0.1,2013-03-26 20:42:00,
2013-03-26 13:47:00,59.8,47.7,30.00,North,-999,-999.0,-999.0,64,0.00,,,0.03,AD6XL-WX-0.1,2013-03-26 20:47:00,
2013-03-26 13:53:00,59.9,47.4,30.00,North,-999,-999.0,-999.0,63,0.00,,,0.03,AD6XL-WX-0.1,2013-03-26 20:53:00,
2013-03-26 13:58:00,59.6,47.2,30.00,North,-999,-999.0,-999.0,63,0.00,,,0.03,AD6XL-WX-0.1,2013-03-26 20:58:00,
2013-03-26 14:03:00,59.3,46.9,30.00,North,-999,-999.0,-999.0,63,0.00,,,0.03,AD6XL-WX-0.1,2013-03-26 21:03:00,
2013-03-26 14:08:00,59.2,46.9,30.00,North,-999,-999.0,-999.0,63,0.00,,,0.03,AD6XL-WX-0.1,2013-03-26 21:08:00,
2013-03-26 14:13:00,59.3,47.2,30.00,North,-999,-999.0,-999.0,64,0.00,,,0.03,AD6XL-WX-0.1,2013-03-26 21:13:00,
2013-03-26 14:18:00,59.4,47.0,30.00,North,-999,-999.0,-999.0,63,0.00,,,0.03,AD6XL-WX-0.1,2013-03-26 21:18:00,
2013-03-26 14:23:00,59.5,47.0,30.00,North,-999,-999.0,-999.0,63,0.00,,,0.03,AD6XL-WX-0.1,2013-03-26 21:23:00,
2013-03-26 14:28:00,59.5,47.0,30.00,North,-999,-999.0,-999.0,63,0.00,,,0.03,AD6XL-WX-0.1,2013-03-26 21:28:00,
2013-03-26 14:33:00,59.3,46.8,30.00,North,-999,-999.0,-999.0,63,0.00,,,0.03,AD6XL-WX-0.1,2013-03-26 21:33:00,
2013-03-26 14:38:00,59.2,47.2,30.00,North,-999,-999.0,-999.0,64,0.00,,,0.03,AD6XL-WX-0.1,2013-03-26 21:38:00,
2013-03-26 14:43:00,59.2,47.5,30.00,North,-999,-999.0,-999.0,65,0.00,,,0.03,AD6XL-WX-0.1,2013-03-26 21:43:00,
2013-03-26 14:49:00,59.0,47.4,30.00,North,-999,-999.0,-999.0,65,0.00,,,0.03,AD6XL-WX-0.1,2013-03-26 21:49:00,
2013-03-26 14:54:00,58.9,47.1,29.99,North,-999,-999.0,-999.0,65,0.00,,,0.03,AD6XL-WX-0.1,2013-03-26 21:54:00,
2013-03-26 14:59:00,58.8,47.0,29.99,North,-999,-999.0,-999.0,64,0.00,,,0.03,AD6XL-WX-0.1,2013-03-26 21:59:00,
2013-03-26 15:04:00,59.0,47.2,29.99,North,-999,-999.0,-999.0,64,0.00,,,0.03,AD6XL-WX-0.1,2013-03-26 22:04:00,
2013-03-26 15:09:00,59.3,47.5,29.99,North,-999,-999.0,-999.0,64,0.00,,,0.03,AD6XL-WX-0.1,2013-03-26 22:09:00,
2013-03-26 15:14:00,59.5,47.3,29.99,North,-999,-999.0,-999.0,63,0.00,,,0.03,AD6XL-WX-0.1,2013-03-26 22:14:00,
2013-03-26 15:19:00,59.6,47.1,29.99,North,-999,-999.0,-999.0,63,0.00,,,0.03,AD6XL-WX-0.1,2013-03-26 22:19:00,
2013-03-26 15:24:00,59.9,47.4,29.99,North,-999,-999.0,-999.0,63,0.00,,,0.03,AD6XL-WX-0.1,2013-03-26 22:24:00,
2013-03-26 15:29:00,60.0,47.2,29.99,North,-999,-999.0,-999.0,62,0.00,,,0.03,AD6XL-WX-0.1,2013-03-26 22:29:00,
2013-03-26 15:34:00,60.0,47.4,29.99,North,-999,-999.0,-999.0,63,0.00,,,0.03,AD6XL-WX-0.1,2013-03-26 22:34:00,
2013-03-26 15:40:00,60.2,47.5,29.98,North,-999,-999.0,-999.0,62,0.00,,,0.03,AD6XL-WX-0.1,2013-03-26 22:40:00,
2013-03-26 15:45:00,60.4,47.3,29.98,North,-999,-999.0,-999.0,62,0.00,,,0.03,AD6XL-WX-0.1,2013-03-26 22:45:00,
2013-03-26 15:50:00,60.4,47.2,29.98,North,-999,-999.0,-999.0,61,0.00,,,0.03,AD6XL-WX-0.1,2013-03-26 22:50:00,
2013-03-26 15:55:00,60.3,47.3,29.98,North,-999,-999.0,-999.0,62,0.00,,,0.03,AD6XL-WX-0.1,2013-03-26 22:55:00,
2013-03-26 16:00:00,60.3,47.4,29.98,North,-999,-999.0,-999.0,62,0.00,,,0.03,AD6XL-WX-0.1,2013-03-26 23:00:00,
2013-03-26 16:05:00,60.1,47.1,29.98,North,-999,-999.0,-999.0,62,0.00,,,0.03,AD6XL-WX-0.1,2013-03-26 23:05:00,
2013-03-26 16:10:00,59.8,46.8,29.98,North,-999,-999.0,-999.0,62,0.00,,,0.03,AD6XL-WX-0.1,2013-03-26 23:10:00,
2013-03-26 16:15:00,59.7,46.9,29.98,North,-999,-999.0,-999.0,62,0.00,,,0.03,AD6XL-WX-0.1,2013-03-26 23:15:00,
2013-03-26 16:20:00,59.8,47.1,29.98,North,-999,-999.0,-999.0,62,0.00,,,0.03,AD6XL-WX-0.1,2013-03-26 23:20:00,
2013-03-26 16:25:00,59.8,47.3,29.97,North,-999,-999.0,-999.0,63,0.00,,,0.03,AD6XL-WX-0.1,2013-03-26 23:25:00,
2013-03-26 16:31:00,59.7,47.1,29.97,North,-999,-999.0,-999.0,62,0.00,,,0.03,AD6XL-WX-0.1,2013-03-26 23:31:00,
2013-03-26 16:36:00,59.5,46.7,29.97,North,-999,-999.0,-999.0,62,0.00,,,0.03,AD6XL-WX-0.1,2013-03-26 23:36:00,
2013-03-26 16:41:00,59.2,46.6,29.97,North,-999,-999.0,-999.0,62,0.00,,,0.03,AD6XL-WX-0.1,2013-03-26 23:41:00,
2013-03-26 16:46:00,59.1,46.7,29.97,North,-999,-999.0,-999.0,63,0.00,,,0.03,AD6XL-WX-0.1,2013-03-26 23:46:00,
2013-03-26 16:51:00,59.0,46.7,29.97,North,-999,-999.0,-999.0,63,0.00,,,0.03,AD6XL-WX-0.1,2013-03-26 23:51:00,
2013-03-26 16:56:00,58.9,46.7,29.97,North,-999,-999.0,-999.0,64,0.00,,,0.03,AD6XL-WX-0.1,2013-03-26 23:56:00,
2013-03-26 17:01:00,58.8,46.6,29.97,North,-999,-999.0,-999.0,63,0.00,,,0.03,AD6XL-WX-0.1,2013-03-27 00:01:00,
2013-03-26 17:07:00,58.7,46.6,29.97,North,-999,-999.0,-999.0,64,0.00,,,0.03,AD6XL-WX-0.1,2013-03-27 00:07:00,
2013-03-26 17:12:00,58.5,46.6,29.97,North,-999,-999.0,-999.0,64,0.00,,,0.03,AD6XL-WX-0.1,2013-03-27 00:12:00,
2013-03-26 17:17:00,58.4,46.6,29.97,North,-999,-999.0,-999.0,64,0.00,,,0.03,AD6XL-WX-0.1,2013-03-27 00:17:00,
2013-03-26 17:22:00,58.3,46.6,29.97,North,-999,-999.0,-999.0,65,0.00,,,0.03,AD6XL-WX-0.1,2013-03-27 00:22:00,
2013-03-26 17:27:00,58.2,46.8,29.97,North,-999,-999.0,-999.0,65,0.00,,,0.03,AD6XL-WX-0.1,2013-03-27 00:27:00,
2013-03-26 17:32:00,58.0,46.8,29.97,North,-999,-999.0,-999.0,66,0.00,,,0.03,AD6XL-WX-0.1,2013-03-27 00:32:00,
2013-03-26 17:37:00,57.9,46.6,29.97,North,-999,-999.0,-999.0,66,0.00,,,0.03,AD6XL-WX-0.1,2013-03-27 00:37:00,
2013-03-26 17:42:00,57.7,46.5,29.96,North,-999,-999.0,-999.0,66,0.00,,,0.03,AD6XL-WX-0.1,2013-03-27 00:42:00,
2013-03-26 17:47:00,57.7,46.5,29.96,North,-999,-999.0,-999.0,66,0.00,,,0.03,AD6XL-WX-0.1,2013-03-27 00:47:00,
2013-03-26 17:52:00,57.6,46.4,29.97,North,-999,-999.0,-999.0,65,0.00,,,0.03,AD6XL-WX-0.1,2013-03-27 00:52:00,
2013-03-26 17:57:00,57.5,46.4,29.97,North,-999,-999.0,-999.0,66,0.00,,,0.03,AD6XL-WX-0.1,2013-03-27 00:57:00,
2013-03-26 18:02:00,57.5,46.6,29.96,North,-999,-999.0,-999.0,66,0.00,,,0.03,AD6XL-WX-0.1,2013-03-27 01:02:00,
2013-03-26 18:08:00,57.5,46.8,29.96,North,-999,-999.0,-999.0,67,0.00,,,0.03,AD6XL-WX-0.1,2013-03-27 01:08:00,
2013-03-26 18:13:00,57.5,46.9,29.96,North,-999,-999.0,-999.0,67,0.00,,,0.03,AD6XL-WX-0.1,2013-03-27 01:13:00,
2013-03-26 18:18:00,57.4,46.7,29.96,North,-999,-999.0,-999.0,67,0.00,,,0.03,AD6XL-WX-0.1,2013-03-27 01:18:00,
2013-03-26 18:23:00,57.1,46.5,29.96,North,-999,-999.0,-999.0,67,0.00,,,0.03,AD6XL-WX-0.1,2013-03-27 01:23:00,
2013-03-26 18:28:00,56.9,46.4,29.96,North,-999,-999.0,-999.0,67,0.00,,,0.03,AD6XL-WX-0.1,2013-03-27 01:28:00,
2013-03-26 18:33:00,56.8,46.6,29.96,North,-999,-999.0,-999.0,68,0.00,,,0.03,AD6XL-WX-0.1,2013-03-27 01:33:00,
2013-03-26 18:38:00,56.6,46.8,29.96,North,-999,-999.0,-999.0,69,0.00,,,0.03,AD6XL-WX-0.1,2013-03-27 01:38:00,
2013-03-26 18:43:00,56.4,47.0,29.96,North,-999,-999.0,-999.0,70,0.00,,,0.03,AD6XL-WX-0.1,2013-03-27 01:43:00,
2013-03-26 18:48:00,56.2,47.0,29.96,North,-999,-999.0,-999.0,71,0.00,,,0.03,AD6XL-WX-0.1,2013-03-27 01:48:00,
2013-03-26 18:53:00,56.1,47.1,29.96,North,-999,-999.0,-999.0,71,0.00,,,0.03,AD6XL-WX-0.1,2013-03-27 01:53:00,
2013-03-26 18:58:00,55.9,47.4,29.96,North,-999,-999.0,-999.0,73,0.00,,,0.03,AD6XL-WX-0.1,2013-03-27 01:58:00,
2013-03-26 19:04:00,55.6,47.6,29.96,North,-999,-999.0,-999.0,74,0.00,,,0.03,AD6XL-WX-0.1,2013-03-27 02:04:00,
2013-03-26 19:09:00,55.3,47.6,29.96,North,-999,-999.0,-999.0,75,0.00,,,0.03,AD6XL-WX-0.1,2013-03-27 02:09:00,
2013-03-26 19:14:00,55.1,47.7,29.96,North,-999,-999.0,-999.0,76,0.00,,,0.03,AD6XL-WX-0.1,2013-03-27 02:14:00,
2013-03-26 19:19:00,54.8,47.7,29.96,North,-999,-999.0,-999.0,76,0.00,,,0.03,AD6XL-WX-0.1,2013-03-27 02:19:00,
2013-03-26 19:24:00,54.6,47.6,29.96,North,-999,-999.0,-999.0,77,0.00,,,0.03,AD6XL-WX-0.1,2013-03-27 02:24:00,
2013-03-26 19:29:00,54.4,47.6,29.96,North,-999,-999.0,-999.0,77,0.00,,,0.03,AD6XL-WX-0.1,2013-03-27 02:29:00,
2013-03-26 19:34:00,54.2,47.6,29.96,North,-999,-999.0,-999.0,78,0.00,,,0.03,AD6XL-WX-0.1,2013-03-27 02:34:00,
2013-03-26 19:39:00,54.0,47.6,29.96,North,-999,-999.0,-999.0,78,0.00,,,0.03,AD6XL-WX-0.1,2013-03-27 02:39:00,
2013-03-26 19:44:00,53.8,47.6,29.96,North,-999,-999.0,-999.0,79,0.00,,,0.03,AD6XL-WX-0.1,2013-03-27 02:44:00,
2013-03-26 19:49:00,53.7,47.6,29.96,North,-999,-999.0,-999.0,79,0.00,,,0.03,AD6XL-WX-0.1,2013-03-27 02:49:00,
2013-03-26 19:55:00,53.5,47.5,29.96,North,-999,-999.0,-999.0,80,0.00,,,0.03,AD6XL-WX-0.1,2013-03-27 02:55:00,
2013-03-26 20:00:00,53.3,47.5,29.96,North,-999,-999.0,-999.0,80,0.00,,,0.03,AD6XL-WX-0.1,2013-03-27 03:00:00,
2013-03-26 20:05:00,53.2,47.4,29.96,North,-999,-999.0,-999.0,80,0.00,,,0.03,AD6XL-WX-0.1,2013-03-27 03:05:00,
2013-03-26 20:10:00,53.0,47.3,29.96,North,-999,-999.0,-999.0,80,0.00,,,0.03,AD6XL-WX-0.1,2013-03-27 03:10:00,
2013-03-26 20:15:00,52.9,47.3,29.96,North,-999,-999.0,-999.0,81,0.00,,,0.03,AD6XL-WX-0.1,2013-03-27 03:15:00,
2013-03-26 20:20:00,52.8,47.4,29.96,North,-999,-999.0,-999.0,81,0.00,,,0.03,AD6XL-WX-0.1,2013-03-27 03:20:00,
2013-03-26 20:25:00,52.7,47.3,29.96,North,-999,-999.0,-999.0,81,0.00,,,0.03,AD6XL-WX-0.1,2013-03-27 03:25:00,
2013-03-26 20:30:00,52.6,47.2,29.96,North,-999,-999.0,-999.0,82,0.00,,,0.03,AD6XL-WX-0.1,2013-03-27 03:30:00,
2013-03-26 20:35:00,52.5,47.2,29.96,North,-999,-999.0,-999.0,82,0.00,,,0.03,AD6XL-WX-0.1,2013-03-27 03:35:00,
2013-03-26 20:40:00,52.4,47.2,29.97,North,-999,-999.0,-999.0,82,0.00,,,0.03,AD6XL-WX-0.1,2013-03-27 03:40:00,
2013-03-26 20:45:00,52.3,47.1,29.97,North,-999,-999.0,-999.0,82,0.00,,,0.03,AD6XL-WX-0.1,2013-03-27 03:45:00,
2013-03-26 20:50:00,52.3,47.2,29.97,North,-999,-999.0,-999.0,82,0.00,,,0.03,AD6XL-WX-0.1,2013-03-27 03:50:00,
2013-03-26 20:56:00,52.3,47.2,29.97,North,-999,-999.0,-999.0,82,0.00,,,0.03,AD6XL-WX-0.1,2013-03-27 03:56:00,
2013-03-26 21:00:00,52.3,47.2,29.97,North,-999,-999.0,-999.0,82,0.00,,,0.03,AD6XL-WX-0.1,2013-03-27 04:00:00,
2013-03-26 21:01:00,52.3,47.2,29.97,North,-999,-999.0,-999.0,82,0.00,,,0.03,AD6XL-WX-0.1,2013-03-27 04:01:00,
2013-03-26 21:06:00,52.2,47.3,29.97,North,-999,-999.0,-999.0,83,0.00,,,0.03,AD6XL-WX-0.1,2013-03-27 04:06:00,
2013-03-26 21:11:00,52.2,47.3,29.97,North,-999,-999.0,-999.0,83,0.00,,,0.03,AD6XL-WX-0.1,2013-03-27 04:11:00,
2013-03-26 21:16:00,52.2,47.3,29.97,North,-999,-999.0,-999.0,83,0.00,,,0.03,AD6XL-WX-0.1,2013-03-27 04:16:00,
2013-03-26 21:22:00,52.2,47.3,29.97,North,-999,-999.0,-999.0,83,0.00,,,0.03,AD6XL-WX-0.1,2013-03-27 04:22:00,
2013-03-26 21:27:00,52.2,47.4,29.97,North,-999,-999.0,-999.0,83,0.00,,,0.03,AD6XL-WX-0.1,2013-03-27 04:27:00,
2013-03-26 21:32:00,52.2,47.5,29.97,North,-999,-999.0,-999.0,83,0.00,,,0.03,AD6XL-WX-0.1,2013-03-27 04:32:00,
2013-03-26 21:37:00,52.3,47.6,29.97,North,-999,-999.0,-999.0,84,0.00,,,0.03,AD6XL-WX-0.1,2013-03-27 04:37:00,
2013-03-26 21:42:00,52.2,47.7,29.97,North,-999,-999.0,-999.0,84,0.00,,,0.03,AD6XL-WX-0.1,2013-03-27 04:42:00,
2013-03-26 21:47:00,52.1,47.7,29.97,North,-999,-999.0,-999.0,85,0.00,,,0.03,AD6XL-WX-0.1,2013-03-27 04:47:00,
2013-03-26 21:52:00,51.9,47.8,29.97,North,-999,-999.0,-999.0,85,0.00,,,0.03,AD6XL-WX-0.1,2013-03-27 04:52:00,
2013-03-26 21:57:00,51.7,47.8,29.97,North,-999,-999.0,-999.0,86,0.00,,,0.03,AD6XL-WX-0.1,2013-03-27 04:57:00,
2013-03-26 22:02:00,51.6,47.8,29.97,North,-999,-999.0,-999.0,86,0.00,,,0.03,AD6XL-WX-0.1,2013-03-27 05:02:00,
2013-03-26 22:08:00,51.5,47.9,29.97,North,-999,-999.0,-999.0,87,0.00,,,0.03,AD6XL-WX-0.1,2013-03-27 05:08:00,
2013-03-26 22:13:00,51.4,47.9,29.97,North,-999,-999.0,-999.0,87,0.00,,,0.03,AD6XL-WX-0.1,2013-03-27 05:13:00,
2013-03-26 22:18:00,51.4,48.0,29.97,North,-999,-999.0,-999.0,88,0.00,,,0.03,AD6XL-WX-0.1,2013-03-27 05:18:00,
2013-03-26 22:23:00,51.3,48.0,29.97,North,-999,-999.0,-999.0,88,0.00,,,0.03,AD6XL-WX-0.1,2013-03-27 05:23:00,
2013-03-26 22:28:00,51.2,47.9,29.97,North,-999,-999.0,-999.0,88,0.00,,,0.03,AD6XL-WX-0.1,2013-03-27 05:28:00,
2013-03-26 22:33:00,51.1,47.9,29.97,North,-999,-999.0,-999.0,88,0.00,,,0.03,AD6XL-WX-0.1,2013-03-27 05:33:00,
2013-03-26 22:38:00,51.2,47.9,29.96,North,-999,-999.0,-999.0,88,0.00,,,0.03,AD6XL-WX-0.1,2013-03-27 05:38:00,
2013-03-26 22:43:00,51.2,47.9,29.96,North,-999,-999.0,-999.0,88,0.00,,,0.03,AD6XL-WX-0.1,2013-03-27 05:43:00,
2013-03-26 22:48:00,51.2,47.9,29.96,North,-999,-999.0,-999.0,88,0.00,,,0.03,AD6XL-WX-0.1,2013-03-27 05:48:00,
2013-03-26 22:53:00,51.2,47.9,29.96,North,-999,-999.0,-999.0,88,0.00,,,0.03,AD6XL-WX-0.1,2013-03-27 05:53:00,
2013-03-26 22:58:00,51.1,47.8,29.96,North,-999,-999.0,-999.0,88,0.00,,,0.03,AD6XL-WX-0.1,2013-03-27 05:58:00,
2013-03-26 23:04:00,51.1,47.8,29.96,North,-999,-999.0,-999.0,88,0.00,,,0.03,AD6XL-WX-0.1,2013-03-27 06:04:00,
2013-03-26 23:09:00,51.0,47.8,29.96,North,-999,-999.0,-999.0,88,0.00,,,0.03,AD6XL-WX-0.1,2013-03-27 06:09:00,
2013-03-26 23:14:00,50.8,47.8,29.96,North,-999,-999.0,-999.0,89,0.00,,,0.03,AD6XL-WX-0.1,2013-03-27 06:14:00,
2013-03-26 23:19:00,50.7,47.7,29.96,North,-999,-999.0,-999.0,89,0.00,,,0.03,AD6XL-WX-0.1,2013-03-27 06:19:00,
2013-03-26 23:24:00,50.7,47.8,29.96,North,-999,-999.0,-999.0,89,0.00,,,0.03,AD6XL-WX-0.1,2013-03-27 06:24:00,
2013-03-26 23:29:00,50.6,47.7,29.96,North,-999,-999.0,-999.0,89,0.00,,,0.03,AD6XL-WX-0.1,2013-03-27 06:29:00,
2013-03-26 23:34:00,50.5,47.7,29.96,North,-999,-999.0,-999.0,90,0.00,,,0.03,AD6XL-WX-0.1,2013-03-27 06:34:00,
2013-03-26 23:39:00,50.2,47.5,29.96,North,-999,-999.0,-999.0,90,0.00,,,0.03,AD6XL-WX-0.1,2013-03-27 06:39:00,
2013-03-26 23:44:00,49.9,47.2,29.96,North,-999,-999.0,-999.0,90,0.00,,,0.03,AD6XL-WX-0.1,2013-03-27 06:44:00,
2013-03-26 23:49:00,49.7,47.0,29.96,North,-999,-999.0,-999.0,90,0.00,,,0.03,AD6XL-WX-0.1,2013-03-27 06:49:00,
2013-03-26 23:54:00,49.4,46.9,29.96,North,-999,-999.0,-999.0,90,0.00,,,0.03,AD6XL-WX-0.1,2013-03-27 06:54:00,
2013-03-26 23:59:00,49.1,46.6,29.96,North,-999,-999.0,-999.0,91,0.00,,,0.03,AD6XL-WX-0.1,2013-03-27 06:59:00,